TimeEST,TemperatureF,Dew PointF,Humidity,Sea Level PressureIn,VisibilityMPH,Wind Direction,Wind SpeedMPH,Gust SpeedMPH,PrecipitationIn,Events,Conditions,WindDirDegrees,DateUTC
12:51 AM,35.1,30.0,82,29.91,9.0,WNW,9.2,-,N/A,,Overcast,290,2012-12-11 05:51:00
1:51 AM,34.0,30.0,85,29.92,6.0,WNW,10.4,-,N/A,,Overcast,290,2012-12-11 06:51:00
2:51 AM,34.0,30.0,85,29.94,7.0,West,10.4,-,N/A,,Overcast,280,2012-12-11 07:51:00
3:51 AM,34.0,30.0,85,29.95,7.0,West,8.1,-,N/A,,Overcast,270,2012-12-11 08:51:00
4:51 AM,34.0,30.9,89,29.96,7.0,West,8.1,-,N/A,,Overcast,270,2012-12-11 09:51:00
5:51 AM,35.1,30.9,85,29.99,10.0,West,10.4,-,N/A,,Overcast,270,2012-12-11 10:51:00
6:51 AM,35.1,30.0,82,30.00,10.0,WNW,9.2,-,N/A,,Overcast,290,2012-12-11 11:51:00
7:51 AM,35.1,30.0,82,30.03,8.0,West,10.4,-,N/A,,Overcast,270,2012-12-11 12:51:00
8:51 AM,35.1,30.0,82,30.06,8.0,West,10.4,-,N/A,,Overcast,260,2012-12-11 13:51:00
9:06 AM,35.6,30.2,81,30.04,8.0,West,10.4,-,N/A,,Overcast,270,2012-12-11 14:06:00
9:51 AM,35.1,28.9,78,30.09,9.0,WNW,9.2,-,N/A,,Overcast,290,2012-12-11 14:51:00
10:39 AM,35.6,28.4,75,30.09,9.0,WNW,8.1,-,0.00,,Small Hail,290,2012-12-11 15:39:00
10:51 AM,35.1,30.0,82,30.11,7.0,West,10.4,-,0.00,Rain-Snow,Light Snow,260,2012-12-11 15:51:00
11:51 AM,36.0,28.9,76,30.11,6.0,West,10.4,-,0.00,Snow,Light Snow,270,2012-12-11 16:51:00
11:58 AM,35.6,28.4,75,30.09,6.0,WSW,9.2,-,0.00,,Haze,250,2012-12-11 16:58:00
12:51 PM,35.1,27.0,72,30.12,7.0,West,11.5,-,0.00,Snow,Light Snow,270,2012-12-11 17:51:00
1:51 PM,35.1,26.1,70,30.12,7.0,West,13.8,-,0.00,Snow,Light Snow,260,2012-12-11 18:51:00
2:51 PM,36.0,26.1,67,30.12,10.0,WSW,10.4,-,N/A,,Overcast,250,2012-12-11 19:51:00
3:51 PM,36.0,24.1,62,30.14,10.0,West,13.8,-,N/A,,Overcast,260,2012-12-11 20:51:00
4:51 PM,35.1,23.0,61,30.16,10.0,WSW,9.2,-,N/A,,Mostly Cloudy,250,2012-12-11 21:51:00
5:51 PM,34.0,21.0,59,30.17,10.0,WSW,10.4,-,N/A,,Mostly Cloudy,250,2012-12-11 22:51:00
6:51 PM,32.0,21.0,64,30.19,10.0,SW,5.8,-,N/A,,Scattered Clouds,230,2012-12-11 23:51:00
7:51 PM,32.0,21.9,66,30.21,10.0,SW,6.9,-,N/A,,Scattered Clouds,230,2012-12-12 00:51:00
8:51 PM,30.9,23.0,72,30.22,10.0,WSW,4.6,-,N/A,,Partly Cloudy,240,2012-12-12 01:51:00
9:51 PM,30.0,23.0,75,30.23,10.0,SW,4.6,-,N/A,,Clear,230,2012-12-12 02:51:00
10:51 PM,30.0,23.0,75,30.24,10.0,SW,4.6,-,N/A,,Clear,220,2012-12-12 03:51:00
11:51 PM,28.9,23.0,78,30.26,10.0,SW,4.6,-,N/A,,Clear,220,2012-12-12 04:51:00